Location: Pasadena-CA
(34.1440°N, 118.1100°W)
Time: 23:14:18
(UTC-07:00)

Oscar 19 - Pass Details

Date: 02 July 2022
Orbit: 773 x 790 km, 98.8° (Epoch: 14 August)

Event Time Altitude Azimuth Distance (km) Brightness Sun altitude
Rises 04:37:25 0° 8° (N) 3,254 14.6 -12.4°
Reaches altitude 10° 04:39:45 10° 6° (N) 2,323 13.8 -12.0°
Maximum altitude 04:44:48 62° 286° (WNW) 868 10.7 -11.2°
Enters shadow 04:49:48 10° 206° (SSW) 2,306 12.5 -10.4°
